Hauptseite
METAR-TAF:

METAR-TAF

Flughäfen :

Flugplatz Laupheim

Laupheim, Deutschland

Breite: 48-13N, Länge: 009-55E, Höhe: 538 m

Beobachtung

Neuester Wetterbericht von vor 28 Minuten, um 22:20 UTC
Wind 12 kt aus West
Temperatur 5°C
Luftfeuchtigkeit 81%
Luftdruck 1014 hPa
Sichtweite 10 km oder mehr
Leicht bewölkt in der Höhe von 700 ft
Aufgelockert bewölkt in der Höhe von 1800 ft
Durchbrochene Bewölkung in der Höhe von 3500 ft

METAR: ETHL 092220Z 27012KT 9999 FEW007 SCT018 BKN035 05/02 Q1014 BLU

Zeit: 23:48 (22:48 UTC)


TAF: fehlend

Wetterbeobachtungen und Prognosen von mehr als 4000 Flughäfen (METAR und TAF Bericht).

Die verfügbaren Stationen werden durch gelbe und rote Markierungen auf der Karte dargestellt.

Führen Sie die Maus auf sie, um den Namen der Station zu sehen.

Darauf klicken, um die Beobachtung von Wetterbeobachtungen und Prognosen zu sehen.

Um die Karte zu ändern : klicken Sie auf den grünen Tasten mit einem schwarzen Kreuz Zum Vergrößern, auf den grünen Button mit einem Gedankenstrich zu verkleinern, oder auf die grünen Pfeile für benachbarte Karten.


METAR-TAF: